Location: Deep South Regional Star Gaze
(30.9929°N, 90.9586°W)
Time: 05:50:08
(UTC-05:00)

Daily predictions for brighter satellites

Satellite Brightness Start Highest point End
(mag) Time Altitude Azimuth Time Altitude Azimuth Time Altitude Azimuth
Cosmos 2227 Rocket 4.0 00:33:27 10° N 00:36:07 27° N 00:36:07 27° N
Cosmos 1980 Rocket 4.4 01:03:42 18° NE 01:03:42 18° NE 01:05:12 10° NE
Cosmos 2297 Rocket 4.3 01:28:16 10° NNW 01:30:03 21° NNW 01:30:03 21° NNW
SL-16 R/B 4.3 01:44:16 20° NE 01:44:16 20° NE 01:46:11 10° NE
Cosmos 2322 Rocket 4.1 01:53:12 23° NE 01:53:12 23° NE 01:55:34 10° NE
USA 234 3.8 02:03:19 10° NE 02:08:23 53° N 02:08:23 53° N
Resurs 1-4 Rocket 4.3 02:18:02 10° NE 02:20:23 18° ENE 02:20:23 18° ENE
ATLAS 2AS CENTAUR R/B 4.2 02:26:52 29° ESE 02:26:52 29° ESE 02:33:10 10° NE
NOSS 3-1 (A) 4.4 02:33:28 39° NNW 02:33:28 39° NNW 02:37:51 10° NNE
ADEOS Rocket 3.8 02:27:08 10° NNE 02:31:34 44° NE 02:31:34 44° NE
Cosmos 2263 Rocket 3.6 02:36:48 10° N 02:41:51 32° ENE 02:42:29 31° ENE
CZ-2D R/B 3.7 02:36:59 10° NE 02:40:47 30° ENE 02:40:47 30° ENE
Cosmos 2360 Rocket 3.4 02:44:09 36° ENE 02:44:09 36° ENE 02:47:59 10° NE
Cosmos 1980 Rocket 4.2 02:45:28 18° NW 02:45:28 18° NW 02:48:03 10° NNW
CZ-4C R/B 3.0 02:45:33 10° NNW 02:51:52 66° NW 02:51:52 66° NW
Centaur D AC-29 3.5 03:03:54 21° ESE 03:03:54 21° ESE 03:06:47 10° E
Cosmos 2322 4.3 03:06:53 52° ENE 03:06:53 52° ENE 03:11:30 10° NNE
Iridium 4 Rocket 4.2 03:18:25 54° ESE 03:18:50 55° E 03:24:26 10° NNE
SL-16 R/B 3.7 03:26:08 26° NW 03:26:08 26° NW 03:29:59 10° N
Cosmos 1302 Rocket 4.3 03:30:38 61° N 03:30:38 61° N 03:35:05 10° NNE
ADEOS 3.7 03:25:32 10° NNE 03:30:19 72° NE 03:30:19 72° NE
Cosmos 44 Rocket 4.4 03:27:33 10° N 03:32:01 40° ENE 03:34:04 27° ESE
Cosmos 2322 Rocket 3.8 03:35:01 22° NW 03:35:01 22° NW 03:38:48 10° N
H-2A R/B 3.6 02:57:03 10° W 03:36:35 89° SSW 03:42:03 10° E
IRS-1D 3.8 03:34:01 10° N 03:38:05 55° NNW 03:38:05 55° NNW
Spot 4 Rocket 4.4 03:34:57 10° N 03:39:19 55° NW 03:39:19 55° NW
SL-16 R/B 2.4 03:40:35 72° SSW 03:41:10 79° WSW 03:47:27 10° NNW
CZ-2D R/B 4.2 03:40:47 10° NNE 03:44:34 50° ENE 03:44:34 50° ENE
Milstar 3 4.2 03:51:50 26° SSE 03:51:50 26° SSE 03:57:13 10° SE
Cosmos 2184 Rocket 4.4 04:00:07 42° W 04:00:16 42° W 04:06:05 10° N
ADEOS II 3.7 03:56:49 10° NE 04:01:21 29° E 04:04:54 15° SSE
Resurs 1-4 Rocket 2.8 03:56:52 10° N 04:01:28 37° WNW 04:01:28 37° WNW
Cosmos 1758 Rocket 4.5 03:59:33 10° NNW 04:02:25 37° NW 04:02:25 37° NW
BREEZE-M DEB (TANK) 3.5 04:05:01 29° N 04:05:01 29° N 04:07:54 10° NE
Cosmos 2237 4.4 04:05:01 51° W 04:05:37 54° WNW 04:11:11 10° N
ARIANE 5 R/B 3.2 04:02:19 10° N 04:06:58 38° WNW 04:06:58 38° WNW
Cosmos 1992 Rocket 4.0 04:07:17 52° S 04:08:29 75° ESE 04:13:41 10° NNE
Cosmos 1271 Rocket 3.0 04:11:22 60° NW 04:11:22 60° NW 04:14:52 10° N
Cosmos 2228 3.8 04:13:49 38° NW 04:13:49 38° NW 04:17:07 10° N
ATLAS 2AS CENTAUR R/B 3.3 04:14:19 36° WSW 04:17:11 53° NW 04:25:03 10° NNE
UNKNOWN OBJECT B 3.5 04:14:28 10° N 04:17:32 41° NW 04:17:32 41° NW
Cosmos 1184 Rocket 3.5 04:15:10 10° N 04:17:41 49° N 04:17:41 49° N
Intercosmos 24 3.6 04:18:33 81° WSW 04:18:38 83° W 04:22:57 10° N
Cosmos 389 Rocket 2.5 04:21:17 77° N 04:21:17 77° N 04:24:38 10° N
CZ-2D R/B 3.4 04:17:18 10° NNW 04:21:42 26° WNW 04:22:07 25° WNW
Abrixas rocket 3.4 04:25:02 34° SE 04:25:02 34° SE 04:27:55 10° ENE
Cosmos 1953 4.2 04:21:58 11° SSE 04:25:08 27° E 04:28:35 10° NNE
Cosmos 2263 Rocket 3.4 04:20:52 10° NW 04:24:05 24° WNW 04:24:05 24° WNW
Cosmos 2360 Rocket 3.7 04:25:56 20° WNW 04:26:47 21° WNW 04:30:57 10° NNW
Lacrosse 5 3.9 04:23:52 13° SSE 04:26:52 21° ESE 04:30:37 10° ENE
COSMOS 2428 3.1 04:27:37 38° WSW 04:29:11 47° WNW 04:34:44 10° N
CZ-4B R/B 4.0 04:26:42 10° NNE 04:30:23 39° E 04:33:04 17° SSE
Cosmos 2219 Rocket 2.1 04:28:26 37° SSW 04:30:47 82° WNW 04:36:30 10° NNE
Cosmos 44 3.1 04:27:20 10° NW 04:31:38 52° WSW 04:32:22 46° SSW
Cosmos 1980 4.2 04:28:21 22° S 04:31:54 57° ESE 04:37:28 10° NNE
Cosmos 2237 Rocket 2.8 04:30:03 20° S 04:33:49 54° ESE 04:39:16 10° NNE
Aureole 2 Rocket 2.8 04:33:21 53° SW 04:34:07 65° WNW 04:38:13 10° N
OAO 3 Rocket 3.8 04:32:29 22° WNW 04:35:22 52° N 04:40:10 10° ENE
Nadezhda 3 Rocket 4.0 04:30:22 10° NNW 04:36:31 60° W 04:40:38 22° SSW
SL-8 Rocket 4.1 04:32:15 17° S 04:37:13 83° E 04:43:33 10° N
SEDSat Delta rocket 2.7 04:36:49 50° WSW 04:37:45 76° S 04:42:03 10° E
Cosmos 972 4.3 04:37:21 35° SSW 04:39:28 72° WNW 04:44:20 10° N
MOZ.5/SAFIR/RUBIN 5/SL-8 4.2 04:39:51 37° WSW 04:40:24 38° W 04:44:44 10° NNW
PSLV R/B 3.9 04:40:33 10° NNE 04:44:29 77° ESE 04:46:47 24° S
Cosmos 1812 Rocket 3.5 04:43:40 35° SSW 04:45:20 62° W 04:49:40 10° N
CZ-4B R/B 4.1 04:40:45 10° NNE 04:46:13 49° E 04:51:35 10° S
Cosmos 1844 Rocket 2.8 04:40:50 10° NNW 04:46:32 79° ENE 04:52:11 10° SSE
Cosmos 1544 3.2 04:47:18 42° SW 04:48:10 54° W 04:51:49 10° N
Cosmos 2333 Rocket 2.2 04:45:01 27° SSW 04:48:12 72° WNW 04:53:54 10° NNE
Atlas Centaur 2 3.0 04:48:38 19° S 04:50:11 23° SSE 04:54:07 10° E
SeaSat 1 3.6 04:45:50 10° SE 04:50:31 46° ENE 04:55:13 10° N
Cosmos 1354 Rocket 4.0 04:48:05 10° NNW 04:53:18 60° WSW 04:58:30 10° S
Okean O Rocket 1.8 04:49:25 10° NNE 04:53:52 72° ESE 04:57:47 13° S
Meteor 2-5 Rocket 4.4 04:49:15 10° NNW 04:54:22 35° W 04:57:13 22° SW
ATLAS 3B R/B 3.1 04:49:30 10° NNW 04:56:06 64° ENE 05:02:28 10° SE
BREEZE-M DEB (TANK) 3.6 04:45:16 10° NW 04:56:11 70° SW 04:59:37 10° SE
Cosmos 1818 3.9 04:54:14 16° SSW 04:58:31 64° ESE 05:03:54 10° NE
Cosmos 1766 4.3 04:58:08 25° W 04:58:45 26° W 05:02:06 10° NNW
Meteor 2-21 Rocket 4.4 04:53:08 10° S 04:59:10 88° E 05:05:18 10° N
Meteor 1-24 Rocket 3.8 04:57:27 10° NNW 05:02:43 51° W 05:08:07 10° SSW
USA 161 2.1 05:02:49 33° SW 05:03:20 36° W 05:06:09 10° NNW
ISS -3.6 05:01:32 10° NW 05:04:47 71° NE 05:08:02 10° SE
NOSS 0 Rocket 4.0 05:01:21 19° SW 05:05:48 63° WNW 05:11:58 10° NNE
ATLAS 2A CENTAUR R/B 1.7 05:05:14 28° SW 05:06:11 37° S 05:08:08 10° ESE
Cosmos 1727 Rocket 4.5 05:02:52 10° N 05:09:00 63° E 05:15:05 10° SSE
Cosmos 482 Debris 2.8 05:08:54 44° S 05:09:17 58° SE 05:11:31 10° NE
CZ-4B DEB 4.2 05:04:12 10° NNE 05:09:47 89° ESE 05:15:20 10° SSW
Cosmos 2278 Rocket 3.4 05:05:18 10° N 05:10:44 46° ENE 05:16:09 10° SE
KM-V1 3.7 05:10:45 13° W 05:14:31 88° S 05:17:00 10° E
GENESIS II 4.1 05:11:19 10° NNW 05:15:14 88° ENE 05:19:05 10° SSE
Cosmos 2366 rocket 4.0 05:10:55 10° SSW 05:16:58 62° W 05:23:06 10° N
Cosmos 1076 Rocket 4.3 05:13:00 10° N 05:17:10 54° E 05:21:19 10° SSE
USA 238 DEB 4.1 05:10:29 10° NNW 05:17:36 75° ENE 05:24:46 10° SE
USA 238 4.1 05:10:36 10° NNW 05:17:43 74° ENE 05:24:52 10° SE
Cosmos 1733 3.2 05:15:16 10° S 05:19:08 87° E 05:23:02 10° N
Cosmos 1607 4.2 05:13:51 10° NW 05:19:59 47° WSW 05:26:05 10° S
SL-16 R/B 2.9 05:14:36 10° S 05:20:06 54° ESE 05:25:37 10° NNE
Cosmos 968 Rocket 3.6 05:15:11 10° NNW 05:20:22 77° ENE 05:25:28 10° SSE
BREEZE-M DEB (TANK) 3.8 05:15:25 10° NW 05:26:41 43° WSW 05:30:15 10° SSE
Tiangong 1 1.0 05:24:55 17° SW 05:26:48 58° SE 05:29:33 10° ENE
Cosmos 1339 Rocket 4.4 05:23:17 10° N 05:29:22 87° W 05:35:27 10° S
ERBS 3.5 05:30:54 13° WSW 05:33:31 31° NW 05:36:38 10° NNE
Cosmos 1674 2.7 05:30:26 10° NNW 05:34:15 68° W 05:38:04 10° S
Cosmos 1844 3.9 05:28:58 10° NNW 05:34:22 49° WSW 05:39:49 10° S
Landsat 4 3.8 05:31:02 10° S 05:34:41 54° W 05:38:21 10° NNW
Cosmos 1356 Rocket 4.0 05:34:02 10° NNW 05:37:38 32° W 05:41:13 10° SSW
Okean-O 3.5 05:33:59 10° NNE 05:38:18 51° E 05:42:36 10° S
Centaur D-1AR AC-40 3.5 05:36:42 10° SW 05:38:48 13° SSW 05:40:41 10° S
CZ-2C R/B 3.8 05:35:17 10° SSE 05:39:51 82° ENE 05:44:21 10° N
ADEOS II 3.2 05:36:36 10° NNW 05:40:53 26° WNW 05:45:11 10° SW
MTI 4.2 05:39:01 10° SSE 05:42:13 67° ENE 05:45:27 10° N
Meteor PRIRODA 3.9 05:41:02 10° N 05:44:40 52° WNW 05:48:17 10° SSW
CZ-4B R/B 4.0 05:41:00 10° N 05:45:23 77° WNW 05:49:34 10° SSW
KORONAS-FOTON 3.8 05:44:51 10° NNW 05:48:45 67° W 05:52:39 10° S
Cosmos 1408 Rocket 3.8 05:44:29 10° N 05:48:57 78° E 05:53:21 10° S
